Wind_Speed
28 25 23 24 26 28 30 29 30 33 31 32 29 27 26 26 21 17 15 17 18 18 19 19 21 23 22 21 19 20 25 28 30 28 22 23 22 18 14 16 17 16 20
31 29 27 26 27 25 27 26 29 32 33 33 31 27 26 25 22 18 15 16 17 18 18 18 21 22 23 22 22 20 23 27 29 27 23 21 22 19 15 14 18 17 16
31 32 30 27 28 23 25 27 30 32 34 33 29 27 24 23 22 20 18 18 21 19 17 18 19 23 21 22 21 23 22 26 29 28 27 28 28 21 15 15 16 14 15
30 31 30 29 30 22 28 32 32 34 32 30 28 28 25 23 23 21 20 19 20 17 16 17 19 21 21 22 21 20 23 25 29 29 31 16 28 15 20 18 14 13 13
25 29 29 28 24 24 26 34 33 33 29 28 29 29 28 23 23 22 22 20 20 18 19 20 19 18 21 24 22 19 22 23 28 30 28 25 22 20 18 16 16 16 15
27 28 24 25 26 23 28 31 32 29 28 29 30 29 25 23 23 23 21 21 21 20 21 21 21 20 20 20 23 19 18 23 26 29 28 26 24 20 16 14 17 26 18
26 23 24 23 26 26 28 31 29 28 28 30 28 24 22 21 20 22 22 20 19 19 23 23 21 22 21 19 19 20 20 22 24 26 28 27 24 22 17 17 18 15 20
23 23 23 23 29 29 29 27 27 26 27 24 22 20 18 18 17 19 22 20 19 21 22 20 20 19 20 20 18 18 21 22 22 23 27 26 24 20 15 17 13 20 29
21 20 22 27 29 27 24 26 25 23 21 19 18 18 17 16 15 17 19 18 20 19 18 20 20 18 19 18 17 16 20 21 20 24 25 24 22 20 18 18 21 25 26
19 22 23 27 24 23 24 23 21 18 15 16 15 15 16 15 13 13 19 23 26 20 19 20 19 18 18 17 17 16 19 19 20 23 25 22 20 18 16 20 17 28 15
19 22 26 25 23 23 19 19 16 13 12 13 13 14 14 13 12 10 11 17 26 22 19 18 18 17 18 16 17 16 19 19 21 23 26 23 22 21 17 16 15 17 9
23 27 23 22 19 17 16 13 12 10 11 12 11 12 10 8 10 9 9 10 24 20 17 16 16 18 16 16 18 16 18 18 20 22 25 22 21 19 18 14 10 8 9
23 18 18 15 15 14 11 11 9 10 11 10 9 9 7 6 9 9 10 14 16 18 16 14 15 16 16 16 17 18 19 18 18 21 23 20 18 18 14 17 16 13 16
15 15 13 13 12 11 11 9 9 11 9 8 6 6 4 3 6 9 5 12 16 17 16 15 14 15 16 17 17 17 18 17 17 18 20 19 18 14 11 14 11 9 3
12 11 12 12 11 10 9 8 10 10 8 5 5 4 2 4 7 8 8 6 8 13 14 13 15 15 17 17 18 16 17 17 18 19 21 19 16 15 10 13 12 7 9
10 10 10 9 8 8 8 10 11 10 6 5 4 4 6 8 5 10 7 6 8 10 13 14 13 14 14 14 15 14 16 18 21 18 18 26 22 13 17 7 4 10 6
9 8 8 7 8 8 9 9 9 9 7 6 3 5 8 8 10 8 9 9 9 10 12 14 15 14 14 15 16 15 16 21 22 19 14 13 18 15 11 15 10 12 9
6 5 5 5 6 6 7 8 9 9 7 5 6 6 9 9 9 9 9 11 10 12 14 14 14 13 15 15 15 16 19 21 21 21 15 15 14 16 12 15 14 13 26
5 4 5 4 4 3 6 10 8 7 6 6 6 7 9 8 10 10 8 8 11 14 13 12 12 12 11 16 16 17 19 19 23 23 18 25 15 14 16 21 14 27 23
6 5 5 4 3 0 4 8 2 4 7 7 7 9 9 10 10 10 9 8 8 15 12 12 11 7 19 18 15 15 18 20 20 23 21 29 17 25 18 17 27 23 18
6 5 6 7 5 6 6 3 5 2 6 6 9 12 10 9 8 8 9 12 9 13 11 12 8 9 16 16 23 20 27 20 22 18 23 16 20 22 23 31 27 20 16
6 7 9 8 5 4 3 6 2 6 5 8 7 12 8 10 8 7 8 16 15 11 8 9 10 15 13 21 22 23 22 20 24 21 21 25 25 17 22 27 20 17 14
7 7 8 6 4 1 5 7 3 3 6 4 7 8 7 9 11 9 10 13 13 14 14 10 7 18 13 27 24 23 19 19 18 27 29 31 29 28 26 22 16 13 9
7 9 9 7 4 1 5 7 5 5 4 2 2 10 8 10 14 16 15 16 15 10 13 11 17 23 23 25 22 13 16 29 35 35 30 24 24 24 23 20 16 11 7
7 10 9 8 4 1 3 6 7 3 6 6 3 4 4 8 7 15 20 22 9 13 20 26 25 18 17 29 22 22 34 34 32 28 28 27 24 22 19 15 11 8 5
9 8 8 7 2 1 0 2 4 2 4 4 3 6 9 12 15 17 18 20 27 26 28 28 32 31 28 30 32 28 29 27 26 29 27 26 21 17 14 12 9 9 6
Wind_Direction
280 275 281 281 282 284 290 294 288 289 295 297 299 305 308 305 292 285 272 252 248 250 248 239 233 229 224 224 227 226 220 218 220 217 211 227 226 238 233 237 229 232 239
275 276 276 278 283 284 289 286 281 287 292 292 296 300 302 298 285 275 266 256 251 248 244 232 226 225 224 223 226 226 220 214 219 219 221 218 221 240 235 240 232 244 251
274 275 275 279 280 285 290 287 284 286 288 289 293 296 291 284 276 267 262 256 255 255 237 232 222 224 221 220 224 225 224 216 214 220 219 214 227 225 233 232 233 252 252
273 275 277 287 292 289 302 292 286 285 286 288 292 292 286 276 269 263 259 256 251 249 236 225 221 224 223 222 219 228 220 218 214 219 227 223 229 211 225 233 243 254 242
268 268 270 282 279 278 279 281 280 286 288 296 297 290 286 274 268 263 256 253 249 249 230 222 220 223 229 229 225 228 220 218 214 215 219 221 230 230 231 241 246 261 238
259 262 276 279 275 277 278 282 287 287 298 297 291 288 283 276 263 259 253 251 244 241 228 224 224 229 228 228 222 221 219 216 214 213 218 218 223 231 239 249 252 252 236
264 259 268 269 278 276 284 289 285 296 296 295 290 283 278 273 263 251 247 251 237 238 211 215 224 235 228 223 221 220 216 210 214 211 219 220 221 227 235 241 251 254 249
265 262 265 274 279 287 285 282 293 296 297 290 289 287 281 273 262 249 244 241 233 225 220 225 233 229 226 222 219 215 210 206 208 208 217 219 218 223 232 228 246 245 241
260 255 266 271 279 280 277 288 292 297 292 289 292 288 287 277 261 249 236 223 229 216 222 218 223 229 226 223 216 214 211 209 207 203 213 218 216 219 228 230 240 247 238
261 260 265 272 270 271 282 286 293 288 287 295 296 295 285 268 257 252 233 222 224 215 213 211 219 229 223 225 213 214 211 210 207 201 204 214 219 218 227 228 239 249 270
262 268 269 271 270 275 281 287 283 281 288 297 300 304 292 257 245 250 244 236 218 210 214 220 222 221 211 218 207 215 206 205 205 203 200 206 210 219 223 223 232 256 225
253 262 266 268 276 278 285 282 282 275 298 301 295 309 308 249 229 226 240 248 201 202 212 218 218 214 216 211 204 215 207 204 203 202 201 206 210 215 215 236 200 269 267
252 257 265 275 274 287 287 279 268 278 294 294 285 310 320 245 217 228 242 222 213 203 212 210 216 202 200 201 203 210 204 202 201 201 201 203 206 211 218 201 234 251 251
257 268 274 277 288 283 274 265 274 280 285 291 283 291 315 233 210 233 194 175 195 203 213 218 204 191 196 198 202 205 201 201 199 199 200 199 201 197 213 210 220 228 228
270 275 280 284 275 272 261 271 278 273 273 283 275 257 231 174 197 186 179 165 181 203 210 208 203 197 200 202 197 193 192 198 199 198 196 196 207 192 182 215 210 214 196
269 277 275 266 261 253 262 269 266 267 265 253 267 247 221 210 161 171 177 178 182 182 190 192 199 196 202 205 200 205 203 204 198 201 211 188 192 190 196 178 191 189 187
262 266 263 253 242 254 264 260 268 273 263 244 244 229 214 216 204 195 197 181 180 185 192 190 187 191 196 203 202 200 202 192 192 194 192 187 173 201 193 205 180 163 165
257 251 252 240 240 248 262 267 268 271 264 232 212 202 197 208 209 196 191 187 188 188 190 197 189 185 185 196 191 197 194 189 191 188 184 163 194 203 191 203 194 175 140
215 219 221 209 221 241 280 279 278 256 250 219 193 189 184 175 177 179 185 182 193 192 188 194 171 177 184 189 194 192 189 189 176 194 201 198 195 228 197 181 179 136 144
194 190 203 196 176 303 350 25 331 264 219 205 194 186 185 184 187 190 183 204 194 185 187 180 182 219 198 186 175 186 165 168 185 190 200 180 184 171 185 162 145 157 156
182 196 201 171 155 66 32 38 77 86 167 185 181 187 206 202 193 203 214 200 189 187 189 193 200 192 186 192 181 175 170 176 174 195 176 171 144 140 145 149 158 162 166
185 204 183 166 158 83 26 14 56 66 113 192 182 186 179 186 196 216 185 170 176 176 180 205 218 196 174 171 166 177 178 175 171 182 171 148 152 159 167 158 160 163 159
178 171 171 160 151 115 1 341 86 101 105 107 182 176 177 194 183 186 180 173 176 173 171 178 222 207 207 145 161 169 177 182 197 153 146 146 138 138 144 152 156 148 150
174 165 166 159 152 133 25 30 97 100 82 106 83 183 175 203 213 206 193 172 171 196 202 162 129 150 164 174 167 166 167 155 146 144 150 152 149 145 145 147 148 147 146
166 167 157 164 166 80 45 59 78 112 102 93 87 101 135 166 190 198 203 194 177 179 153 151 146 152 158 159 157 156 151 152 144 140 140 140 140 143 143 142 145 140 115
158 164 161 183 132 154 40 52 67 93 144 136 96 103 108 128 134 135 161 176 164 132 139 141 134 138 141 141 141 144 147 141 143 141 142 143 144 141 141 145 139 125 84
Height
3128 3129 3127 3127 3127 3126 3125 3124 3123 3122 3120 3118 3116 3115 3113 3112 3112 3111 3110 3110 3111 3113 3114 3117 3120 3122 3125 3128 3131 3133 3135 3140 3144 3148 3152 3155 3157 3160 3161 3163 3165 3166 3167
3122 3122 3122 3121 3121 3121 3120 3119 3117 3117 3115 3113 3112 3110 3108 3107 3107 3107 3107 3107 3107 3109 3110 3112 3115 3118 3121 3123 3127 3130 3132 3135 3140 3144 3146 3152 3155 3156 3159 3161 3163 3164 3165
3115 3115 3115 3114 3115 3116 3116 3114 3112 3110 3109 3107 3107 3103 3102 3102 3102 3102 3103 3103 3104 3105 3106 3108 3112 3114 3117 3120 3123 3126 3129 3132 3136 3140 3144 3145 3149 3150 3155 3159 3161 3162 3163
3109 3109 3109 3110 3109 3111 3112 3108 3106 3104 3103 3101 3100 3097 3096 3096 3097 3098 3098 3099 3100 3101 3103 3105 3108 3110 3113 3116 3119 3123 3126 3129 3133 3136 3138 3134 3135 3143 3150 3156 3160 3161 3160
3104 3103 3104 3105 3105 3104 3103 3102 3099 3096 3096 3094 3091 3090 3090 3090 3091 3091 3093 3094 3095 3096 3099 3101 3104 3107 3110 3113 3116 3119 3122 3126 3129 3134 3138 3141 3141 3143 3149 3154 3157 3158 3159
3097 3098 3099 3100 3099 3099 3096 3094 3092 3090 3088 3086 3084 3084 3083 3083 3085 3085 3087 3089 3090 3092 3094 3098 3100 3104 3107 3109 3112 3115 3118 3123 3126 3131 3136 3140 3143 3146 3149 3152 3155 3156 3157
3091 3092 3092 3093 3093 3092 3089 3087 3086 3083 3081 3079 3078 3078 3077 3077 3078 3079 3081 3083 3086 3088 3090 3093 3097 3100 3103 3106 3109 3112 3116 3120 3123 3128 3133 3138 3141 3145 3148 3151 3153 3152 3153
3085 3085 3084 3086 3084 3083 3082 3081 3079 3078 3076 3074 3072 3071 3071 3072 3072 3073 3075 3078 3081 3084 3087 3090 3093 3096 3099 3102 3105 3109 3112 3116 3120 3125 3130 3135 3138 3142 3146 3148 3150 3150 3151
3078 3079 3080 3079 3078 3077 3076 3075 3074 3073 3071 3069 3068 3067 3066 3066 3067 3068 3070 3074 3077 3080 3084 3087 3090 3093 3096 3099 3103 3106 3110 3114 3118 3123 3127 3131 3135 3139 3143 3146 3146 3147 3148
3074 3075 3073 3073 3072 3072 3072 3071 3069 3068 3067 3065 3064 3062 3062 3062 3063 3065 3066 3068 3072 3076 3080 3084 3087 3090 3093 3097 3100 3104 3108 3112 3116 3120 3125 3128 3132 3136 3139 3141 3144 3144 3141
3070 3068 3066 3066 3067 3068 3067 3066 3066 3065 3064 3062 3061 3060 3058 3058 3060 3062 3062 3064 3068 3072 3077 3081 3084 3087 3090 3094 3098 3102 3106 3109 3113 3117 3122 3126 3131 3133 3138 3141 3144 3146 3147
3064 3063 3062 3063 3063 3063 3062 3062 3061 3061 3060 3059 3059 3057 3055 3055 3058 3059 3060 3058 3064 3069 3075 3079 3082 3085 3088 3092 3095 3099 3103 3106 3111 3115 3119 3123 3129 3132 3137 3140 3142 3146 3147
3058 3059 3059 3058 3058 3058 3057 3057 3058 3058 3058 3057 3056 3055 3054 3054 3056 3057 3059 3061 3064 3068 3073 3077 3080 3083 3086 3090 3094 3097 3101 3105 3109 3113 3118 3122 3127 3131 3136 3139 3143 3145 3145
3053 3053 3053 3053 3053 3053 3054 3054 3054 3055 3055 3054 3054 3054 3053 3053 3056 3056 3055 3058 3063 3067 3071 3075 3078 3082 3084 3088 3092 3096 3100 3103 3108 3112 3116 3121 3126 3131 3134 3138 3141 3143 3143
3048 3048 3048 3049 3049 3051 3051 3052 3053 3053 3053 3052 3052 3052 3053 3054 3055 3056 3058 3061 3063 3066 3070 3074 3077 3081 3084 3087 3092 3095 3099 3103 3107 3111 3116 3119 3124 3128 3132 3136 3139 3140 3142
3045 3045 3046 3047 3048 3049 3049 3050 3051 3051 3050 3050 3050 3051 3052 3054 3055 3057 3059 3061 3063 3066 3069 3072 3076 3079 3083 3087 3091 3095 3098 3102 3106 3110 3114 3114 3120 3126 3130 3135 3137 3139 3141
3043 3044 3044 3045 3046 3047 3048 3049 3049 3048 3048 3048 3049 3050 3052 3054 3056 3058 3059 3061 3063 3065 3069 3072 3074 3078 3082 3085 3090 3093 3096 3100 3105 3109 3114 3114 3123 3126 3129 3134 3136 3139 3142
3041 3041 3043 3044 3045 3046 3047 3046 3046 3045 3045 3046 3047 3049 3052 3053 3055 3057 3059 3061 3063 3065 3068 3070 3075 3078 3082 3085 3088 3092 3095 3100 3104 3109 3115 3119 3121 3124 3128 3132 3136 3139 3143
3039 3041 3043 3043 3045 3045 3045 3044 3042 3043 3043 3044 3046 3048 3051 3053 3055 3057 3059 3061 3062 3065 3067 3071 3075 3078 3081 3084 3087 3090 3095 3099 3106 3110 3113 3119 3121 3124 3127 3131 3137 3140 3142
3039 3040 3042 3043 3044 3045 3044 3042 3041 3040 3041 3043 3045 3047 3050 3052 3054 3056 3058 3060 3061 3064 3068 3071 3073 3075 3079 3083 3087 3091 3094 3097 3103 3110 3112 3115 3121 3123 3126 3131 3136 3140 3144
3038 3039 3041 3043 3044 3045 3044 3041 3041 3041 3041 3042 3044 3046 3048 3051 3053 3055 3056 3059 3061 3065 3068 3071 3073 3075 3078 3081 3087 3090 3095 3101 3105 3109 3113 3116 3121 3124 3128 3133 3137 3143 3145
3038 3040 3042 3043 3044 3045 3044 3042 3040 3041 3040 3041 3043 3045 3047 3049 3051 3053 3054 3057 3061 3065 3068 3070 3072 3076 3079 3081 3086 3093 3098 3101 3105 3109 3114 3117 3122 3126 3130 3135 3139 3143 3146
3038 3040 3042 3044 3044 3045 3043 3041 3042 3041 3041 3042 3043 3045 3046 3048 3050 3053 3054 3057 3061 3064 3067 3069 3070 3074 3079 3083 3088 3094 3099 3103 3107 3110 3117 3121 3124 3128 3133 3138 3142 3145 3148
3038 3040 3043 3044 3044 3044 3044 3043 3042 3042 3043 3043 3042 3043 3045 3046 3048 3051 3054 3057 3061 3062 3064 3068 3070 3075 3081 3085 3090 3097 3101 3106 3111 3115 3120 3125 3128 3132 3137 3141 3144 3146 3147
3038 3041 3043 3044 3044 3045 3045 3044 3044 3043 3044 3044 3044 3044 3044 3044 3045 3046 3052 3057 3062 3060 3062 3068 3074 3078 3082 3088 3095 3100 3105 3111 3115 3119 3123 3129 3133 3136 3140 3142 3144 3146 3146
3039 3042 3044 3044 3045 3045 3046 3045 3045 3045 3046 3046 3046 3046 3045 3045 3046 3048 3051 3057 3062 3065 3066 3070 3075 3081 3088 3093 3099 3104 3112 3117 3120 3123 3127 3131 3135 3139 3141 3143 3144 3145 3145